TimeMST,TemperatureF,Dew PointF,Humidity,Sea Level PressureIn,VisibilityMPH,Wind Direction,Wind SpeedMPH,Gust SpeedMPH,PrecipitationIn,Events,Conditions,WindDirDegrees,DateUTC
12:53 AM,19.9,17.1,89,30.01,10.0,South,3.5,-,N/A,,Mostly Cloudy,180,2012-12-07 07:53:00
1:53 AM,26.1,17.1,69,29.97,10.0,SW,6.9,-,N/A,,Overcast,230,2012-12-07 08:53:00
2:53 AM,24.1,17.1,75,29.99,10.0,SSW,4.6,-,N/A,,Mostly Cloudy,200,2012-12-07 09:53:00
3:53 AM,25.0,16.0,69,29.98,10.0,Calm,Calm,-,N/A,,Scattered Clouds,0,2012-12-07 10:53:00
4:53 AM,23.0,16.0,74,29.99,10.0,West,3.5,-,N/A,,Mostly Cloudy,280,2012-12-07 11:53:00
5:48 AM,24.8,17.6,74,29.87,1.8,WNW,9.2,21.9,0.00,Snow,Light Snow,300,2012-12-07 12:48:00
5:53 AM,24.1,19.0,81,29.99,1.8,NW,9.2,20.7,0.00,Snow,Light Snow,320,2012-12-07 12:53:00
6:08 AM,23.0,19.4,86,29.87,3.0,NW,8.1,-,0.00,Snow,Light Snow,320,2012-12-07 13:08:00
6:53 AM,23.0,19.9,88,30.01,10.0,Calm,Calm,-,0.00,,Overcast,0,2012-12-07 13:53:00
7:53 AM,19.9,17.1,89,30.04,10.0,Calm,Calm,-,N/A,,Clear,0,2012-12-07 14:53:00
8:53 AM,18.0,14.0,84,30.07,2.5,South,4.6,-,N/A,,Partly Cloudy,190,2012-12-07 15:53:00
9:01 AM,17.6,14.0,86,29.92,7.0,SE,3.5,-,N/A,,Scattered Clouds,140,2012-12-07 16:01:00
9:53 AM,23.0,16.0,74,30.05,10.0,Calm,Calm,-,N/A,,Clear,0,2012-12-07 16:53:00
10:53 AM,27.0,14.0,58,30.05,10.0,SW,5.8,-,N/A,,Clear,230,2012-12-07 17:53:00
11:53 AM,28.0,12.9,53,30.02,10.0,SW,11.5,18.4,N/A,,Partly Cloudy,230,2012-12-07 18:53:00
12:53 PM,28.9,12.9,51,29.98,10.0,SSW,10.4,-,N/A,,Overcast,210,2012-12-07 19:53:00
1:53 PM,30.0,15.1,54,29.92,10.0,WSW,5.8,-,0.01,,Mostly Cloudy,250,2012-12-07 20:53:00
2:53 PM,30.0,15.1,54,29.89,10.0,Variable,3.5,-,N/A,,Mostly Cloudy,0,2012-12-07 21:53:00
3:53 PM,30.9,14.0,50,29.86,10.0,WSW,6.9,-,N/A,,Mostly Cloudy,250,2012-12-07 22:53:00
4:53 PM,30.9,12.9,47,29.85,10.0,West,4.6,-,N/A,,Overcast,270,2012-12-07 23:53:00
5:53 PM,28.4,17.6,64,29.72,10.0,SSW,6.9,17.3,N/A,,Mostly Cloudy,210,2012-12-08 00:53:00
6:53 PM,28.4,15.8,59,29.70,10.0,Calm,Calm,-,N/A,,Mostly Cloudy,0,2012-12-08 01:53:00
7:53 PM,28.9,15.1,56,29.77,10.0,Variable,6.9,-,N/A,,Scattered Clouds,0,2012-12-08 02:53:00
8:53 PM,28.9,18.0,64,29.77,10.0,Variable,5.8,-,N/A,,Overcast,0,2012-12-08 03:53:00
9:53 PM,27.0,19.9,75,29.75,10.0,Calm,Calm,-,N/A,,Mostly Cloudy,0,2012-12-08 04:53:00
10:38 PM,26.6,19.4,74,29.62,1.8,WSW,13.8,25.3,0.00,Snow,Light Snow,240,2012-12-08 05:38:00
10:48 PM,26.6,21.2,80,29.61,0.5,WSW,11.5,20.7,0.00,Fog-Snow,Snow,240,2012-12-08 05:48:00
10:53 PM,26.1,21.9,84,29.71,0.5,SW,10.4,18.4,0.00,Fog-Snow,Snow,230,2012-12-08 05:53:00
11:12 PM,26.6,21.2,80,29.61,1.2,West,6.9,-,0.00,Snow,Light Snow,280,2012-12-08 06:12:00
11:25 PM,26.6,23.0,86,29.61,0.5,NW,5.8,-,0.01,Fog-Snow,Snow,320,2012-12-08 06:25:00
11:45 PM,24.8,19.4,80,29.63,0.2,WNW,20.7,32.2,0.01,Fog-Snow,Snow,300,2012-12-08 06:45:00
11:53 PM,24.1,19.9,84,29.74,0.5,WNW,21.9,33.4,0.01,Fog-Snow,Snow,300,2012-12-08 06:53:00